Year,Month,Day,Hour,Minute,Value (Times are PST for temperature in C)
2017,03,20,00,00,4.80
2017,03,20,00,01,4.80
2017,03,20,00,02,4.80
2017,03,20,00,03,4.70
2017,03,20,00,04,4.70
2017,03,20,00,05,4.70
2017,03,20,00,06,4.70
2017,03,20,00,07,4.70
2017,03,20,00,08,4.70
2017,03,20,00,09,4.60
2017,03,20,00,10,4.60
2017,03,20,00,11,4.60
2017,03,20,00,12,4.60
2017,03,20,00,13,4.60
2017,03,20,00,14,4.60
2017,03,20,00,15,4.60
2017,03,20,00,16,4.60
2017,03,20,00,17,4.60
2017,03,20,00,18,4.60
2017,03,20,00,19,4.60
2017,03,20,00,20,4.60
2017,03,20,00,21,4.60
2017,03,20,00,22,4.60
2017,03,20,00,23,4.60
2017,03,20,01,47,4.30
2017,03,20,01,48,4.30
2017,03,20,01,49,4.30
2017,03,20,01,50,4.30
2017,03,20,01,51,4.30
2017,03,20,01,52,4.30
2017,03,20,01,53,4.30
2017,03,20,01,54,4.30
2017,03,20,01,55,4.30
2017,03,20,01,56,4.30
2017,03,20,01,57,4.30
2017,03,20,01,58,4.30
2017,03,20,01,59,4.30
2017,03,20,02,00,4.30
2017,03,20,02,01,4.30
2017,03,20,02,02,4.20
2017,03,20,02,03,4.20
2017,03,20,02,04,4.20
2017,03,20,02,05,4.20
2017,03,20,02,06,4.20
2017,03,20,02,07,4.20
2017,03,20,02,08,4.20
2017,03,20,02,09,4.20
2017,03,20,02,10,4.30
2017,03,20,02,11,4.30
2017,03,20,02,12,4.30
2017,03,20,02,13,4.30
2017,03,20,02,14,4.30
2017,03,20,02,15,4.30
2017,03,20,02,16,4.20
2017,03,20,02,17,4.20
2017,03,20,02,18,4.20
2017,03,20,02,19,4.20
2017,03,20,02,20,4.20
2017,03,20,02,21,4.20
2017,03,20,02,22,4.20
2017,03,20,02,23,4.20
2017,03,20,02,24,4.20
2017,03,20,02,25,4.20
2017,03,20,02,26,4.20
2017,03,20,02,27,4.20
2017,03,20,02,28,4.20
2017,03,20,02,29,4.20
2017,03,20,02,30,4.20
2017,03,20,02,31,4.20
2017,03,20,02,32,4.20
2017,03,20,02,33,4.20
2017,03,20,02,34,4.20
2017,03,20,02,35,4.20
2017,03,20,02,36,4.20
2017,03,20,02,37,4.20
2017,03,20,02,38,4.20
2017,03,20,02,39,4.20
2017,03,20,02,40,4.20
2017,03,20,02,41,4.20
2017,03,20,02,42,4.20
2017,03,20,02,43,4.20
2017,03,20,02,44,4.20
2017,03,20,02,45,4.20
2017,03,20,02,46,4.20
2017,03,20,02,47,4.20
2017,03,20,02,48,4.20
2017,03,20,02,49,4.20
2017,03,20,02,50,4.20
2017,03,20,02,51,4.20
2017,03,20,02,52,4.20
2017,03,20,02,53,4.20
2017,03,20,02,54,4.20
2017,03,20,02,55,4.20
2017,03,20,02,56,4.20
2017,03,20,02,57,4.20
2017,03,20,02,58,4.20
2017,03,20,02,59,4.20
2017,03,20,03,00,4.20
2017,03,20,03,01,4.20
2017,03,20,03,02,4.20
2017,03,20,03,03,4.20
2017,03,20,03,04,4.20
2017,03,20,03,05,4.20
2017,03,20,03,06,4.20
2017,03,20,03,07,4.20
2017,03,20,03,08,4.20
2017,03,20,03,09,4.20
2017,03,20,03,10,4.20
2017,03,20,03,11,4.20
2017,03,20,03,12,4.20
2017,03,20,03,13,4.20
2017,03,20,03,14,4.20
2017,03,20,03,15,4.20
2017,03,20,03,16,4.20
2017,03,20,03,17,4.20
2017,03,20,03,18,4.20
2017,03,20,03,19,4.20
2017,03,20,03,20,4.20
2017,03,20,03,21,4.20
2017,03,20,03,22,4.20
2017,03,20,03,23,4.20
2017,03,20,03,24,4.20
2017,03,20,03,25,4.20
2017,03,20,03,26,4.10
2017,03,20,03,27,4.10
2017,03,20,03,28,4.10
2017,03,20,03,29,4.10
2017,03,20,03,30,4.10
2017,03,20,03,31,4.10
2017,03,20,03,32,4.10
2017,03,20,03,33,4.10
2017,03,20,03,34,4.10
2017,03,20,03,35,4.10
2017,03,20,03,36,4.10
2017,03,20,03,37,4.10
2017,03,20,03,38,4.10
2017,03,20,03,39,4.10
2017,03,20,03,40,4.10
2017,03,20,03,41,4.10
2017,03,20,03,42,4.10
2017,03,20,03,43,4.10
2017,03,20,03,44,4.10
2017,03,20,03,45,4.10
2017,03,20,03,46,4.10
2017,03,20,03,47,4.10
2017,03,20,03,48,4.10
2017,03,20,03,49,4.10
2017,03,20,03,50,4.10
2017,03,20,03,51,4.10
2017,03,20,03,52,4.10
2017,03,20,03,53,4.10
2017,03,20,03,54,4.10
2017,03,20,03,55,4.10
2017,03,20,03,56,4.10
2017,03,20,03,57,4.10
2017,03,20,03,58,4.10
2017,03,20,03,59,4.10
2017,03,20,04,00,4.10
2017,03,20,04,01,4.10
2017,03,20,04,02,4.10
2017,03,20,04,03,4.10
2017,03,20,04,04,4.10
2017,03,20,04,05,4.10
2017,03,20,04,06,4.10
2017,03,20,04,07,4.10
2017,03,20,04,08,4.10
2017,03,20,04,09,4.10
2017,03,20,04,10,4.10
2017,03,20,04,11,4.10
2017,03,20,04,12,4.10
2017,03,20,04,13,4.10
2017,03,20,04,14,4.10
2017,03,20,04,15,4.10
2017,03,20,04,16,4.10
2017,03,20,04,17,4.10
2017,03,20,04,18,4.10
2017,03,20,04,19,4.10
2017,03,20,04,20,4.10
2017,03,20,04,21,4.10
2017,03,20,04,22,4.10
2017,03,20,04,23,4.10
2017,03,20,04,24,4.10
2017,03,20,04,25,4.10
2017,03,20,04,26,4.10
2017,03,20,04,27,4.10
2017,03,20,04,28,4.10
2017,03,20,04,29,4.10
2017,03,20,04,30,4.10
2017,03,20,04,31,4.10
2017,03,20,04,32,4.10
2017,03,20,04,33,4.10
2017,03,20,04,34,4.10
2017,03,20,04,35,4.10
2017,03,20,04,36,4.10
2017,03,20,04,37,4.10
2017,03,20,04,38,4.10
2017,03,20,04,39,4.10
2017,03,20,04,40,4.10
2017,03,20,04,41,4.10
2017,03,20,04,42,4.10
2017,03,20,04,43,4.10
2017,03,20,04,44,4.10
2017,03,20,04,45,4.10
2017,03,20,04,46,4.10
2017,03,20,04,47,4.10
2017,03,20,04,48,4.10
2017,03,20,04,49,4.10
2017,03,20,04,50,4.10
2017,03,20,04,51,4.10
2017,03,20,04,52,4.10
2017,03,20,04,53,4.10
2017,03,20,04,54,4.10
2017,03,20,04,55,4.10
2017,03,20,04,56,4.10
2017,03,20,04,57,4.10
2017,03,20,04,58,4.10
2017,03,20,04,59,4.10
2017,03,20,05,00,4.10
2017,03,20,05,01,4.10
2017,03,20,05,02,4.10
2017,03,20,05,03,4.10
2017,03,20,05,04,4.10
2017,03,20,05,05,4.10
2017,03,20,05,06,4.10
2017,03,20,05,07,4.10
2017,03,20,05,08,4.10
2017,03,20,05,09,4.20
2017,03,20,05,10,4.20
2017,03,20,05,11,4.20
2017,03,20,05,12,4.20
2017,03,20,05,13,4.20
2017,03,20,05,14,4.20
2017,03,20,05,15,4.20
2017,03,20,05,16,4.20
2017,03,20,05,17,4.20
2017,03,20,05,18,4.20
2017,03,20,05,19,4.20
2017,03,20,05,20,4.20
2017,03,20,05,21,4.20
2017,03,20,05,22,4.20
2017,03,20,05,23,4.20
2017,03,20,05,24,4.20
2017,03,20,05,25,4.20
2017,03,20,05,26,4.20
2017,03,20,05,27,4.20
2017,03,20,05,28,4.20
2017,03,20,05,29,4.20
2017,03,20,05,30,4.20
2017,03,20,05,31,4.20
2017,03,20,05,32,4.20
2017,03,20,05,33,4.20
2017,03,20,05,34,4.20
2017,03,20,05,35,4.20
2017,03,20,05,36,4.20
2017,03,20,05,37,4.20
2017,03,20,05,38,4.20
2017,03,20,05,39,4.20
2017,03,20,05,40,4.30
2017,03,20,05,41,4.30
2017,03,20,05,42,4.30
2017,03,20,05,43,4.30
2017,03,20,05,44,4.40
2017,03,20,05,45,4.40
2017,03,20,05,46,4.40
2017,03,20,05,47,4.40
2017,03,20,05,48,4.40
2017,03,20,05,49,4.40
2017,03,20,05,50,4.40
2017,03,20,05,51,4.40
2017,03,20,05,52,4.40
2017,03,20,05,53,4.40
2017,03,20,05,54,4.40
2017,03,20,05,55,4.40
2017,03,20,05,56,4.30
2017,03,20,05,57,4.30
2017,03,20,05,58,4.30
2017,03,20,05,59,4.30
2017,03,20,06,00,4.30
2017,03,20,06,01,4.30
2017,03,20,06,02,4.30
2017,03,20,06,03,4.20
2017,03,20,06,04,4.20
2017,03,20,06,05,4.20
2017,03,20,06,06,4.20
2017,03,20,06,07,4.20
2017,03,20,06,08,4.20
2017,03,20,06,09,4.20
2017,03,20,06,10,4.20
2017,03,20,06,11,4.20
2017,03,20,06,12,4.20
2017,03,20,06,13,4.20
2017,03,20,06,14,4.20
2017,03,20,06,15,4.20
2017,03,20,06,16,4.20
2017,03,20,06,17,4.20
2017,03,20,06,18,4.20
2017,03,20,06,19,4.20
2017,03,20,06,20,4.20
2017,03,20,06,21,4.20
2017,03,20,06,22,4.20
2017,03,20,06,23,4.20
2017,03,20,06,24,4.20
2017,03,20,06,25,4.20
2017,03,20,06,26,4.20
2017,03,20,06,27,4.20
2017,03,20,06,28,4.20
2017,03,20,06,29,4.20
2017,03,20,06,30,4.20
2017,03,20,06,31,4.20
2017,03,20,06,32,4.20
2017,03,20,06,33,4.20
2017,03,20,06,34,4.20
2017,03,20,06,35,4.20
2017,03,20,06,36,4.20
2017,03,20,06,37,4.20
2017,03,20,06,38,4.20
2017,03,20,06,39,4.20
2017,03,20,06,40,4.20
2017,03,20,06,41,4.20
2017,03,20,06,42,4.20
2017,03,20,06,43,4.20
2017,03,20,06,44,4.20
2017,03,20,06,45,4.20
2017,03,20,06,46,4.20
2017,03,20,06,47,4.20
2017,03,20,06,48,4.20
2017,03,20,06,49,4.20
2017,03,20,06,50,4.20
2017,03,20,06,51,4.20
2017,03,20,06,52,4.20
2017,03,20,06,53,4.20
2017,03,20,06,54,4.20
2017,03,20,06,55,4.20
2017,03,20,06,56,4.20
2017,03,20,06,57,4.20
2017,03,20,06,58,4.20
2017,03,20,06,59,4.20
2017,03,20,07,00,4.30
2017,03,20,07,01,4.30
2017,03,20,07,02,4.30
2017,03,20,07,03,4.30
2017,03,20,07,04,4.30
2017,03,20,07,05,4.30
2017,03,20,07,06,4.30
2017,03,20,07,07,4.30
2017,03,20,07,08,4.30
2017,03,20,07,09,4.30
2017,03,20,07,10,4.30
2017,03,20,07,11,4.30
2017,03,20,07,12,4.30
2017,03,20,07,13,4.30
2017,03,20,07,14,4.30
2017,03,20,07,15,4.30
2017,03,20,07,16,4.30
2017,03,20,07,17,4.30
2017,03,20,07,18,4.30
2017,03,20,07,19,4.30
2017,03,20,07,20,4.40
2017,03,20,07,21,4.40
2017,03,20,07,22,4.40
2017,03,20,07,23,4.40
2017,03,20,07,24,4.40
2017,03,20,07,25,4.40
2017,03,20,07,26,4.40
2017,03,20,07,27,4.40
2017,03,20,07,28,4.40
2017,03,20,07,29,4.50
2017,03,20,07,30,4.50
2017,03,20,07,31,4.50
2017,03,20,07,32,4.50
2017,03,20,07,33,4.50
2017,03,20,07,34,4.50
2017,03,20,07,35,4.50
2017,03,20,07,36,4.50
2017,03,20,07,37,4.60
2017,03,20,07,38,4.60
2017,03,20,07,39,4.60
2017,03,20,07,40,4.60
2017,03,20,07,41,4.60
2017,03,20,07,42,4.60
2017,03,20,07,43,4.60
2017,03,20,07,44,4.60
2017,03,20,07,45,4.60
2017,03,20,07,46,4.60
2017,03,20,07,47,4.60
2017,03,20,07,48,4.60
2017,03,20,07,49,4.70
2017,03,20,07,50,4.70
2017,03,20,07,51,4.70
2017,03,20,07,52,4.70
2017,03,20,07,53,4.70
2017,03,20,07,54,4.70
2017,03,20,07,55,4.70
2017,03,20,07,56,4.70
2017,03,20,07,57,4.70
2017,03,20,07,58,4.70
2017,03,20,07,59,4.70
2017,03,20,08,00,4.70
2017,03,20,08,01,4.70
2017,03,20,08,02,4.80
2017,03,20,08,03,4.80
2017,03,20,08,04,4.80
2017,03,20,08,05,4.80
2017,03,20,08,06,4.80
2017,03,20,08,07,4.80
2017,03,20,08,08,4.80
2017,03,20,08,09,4.80
2017,03,20,08,10,4.80
2017,03,20,08,11,4.80
2017,03,20,08,12,4.80
2017,03,20,08,13,4.80
2017,03,20,08,14,4.80
2017,03,20,08,15,4.80
2017,03,20,08,16,4.80
2017,03,20,08,17,4.80
2017,03,20,08,18,4.80
2017,03,20,08,19,4.80
2017,03,20,08,20,4.80
2017,03,20,08,21,4.80
2017,03,20,08,22,4.80
2017,03,20,08,23,4.80
2017,03,20,08,24,4.80
2017,03,20,08,25,4.90
2017,03,20,08,26,4.90
2017,03,20,08,27,4.90
2017,03,20,08,28,4.90
2017,03,20,08,29,4.90
2017,03,20,08,30,4.90
2017,03,20,08,31,4.90
2017,03,20,08,32,4.90
2017,03,20,08,33,4.90
2017,03,20,08,34,4.90
2017,03,20,08,35,4.90
2017,03,20,08,36,4.90
2017,03,20,08,37,5.00
2017,03,20,08,38,5.10
2017,03,20,08,39,5.10
2017,03,20,08,40,5.10
2017,03,20,08,41,5.10
2017,03,20,08,42,5.10
2017,03,20,08,43,5.10
2017,03,20,08,44,5.10
2017,03,20,08,45,5.10
2017,03,20,08,46,5.10
2017,03,20,08,47,5.10
2017,03,20,08,48,5.10
2017,03,20,08,49,5.10
2017,03,20,08,50,5.10
2017,03,20,08,51,5.10
2017,03,20,08,52,5.20
2017,03,20,08,53,5.20
2017,03,20,08,54,5.20
2017,03,20,08,55,5.20
2017,03,20,08,56,5.20
2017,03,20,08,57,5.20
2017,03,20,08,58,5.30
2017,03,20,08,59,5.30
2017,03,20,09,00,5.30
2017,03,20,09,01,5.30
2017,03,20,09,02,5.30
2017,03,20,09,03,5.30
2017,03,20,09,04,5.30
2017,03,20,09,05,5.30
2017,03,20,09,06,5.30
2017,03,20,09,07,5.30
2017,03,20,09,08,5.30
2017,03,20,09,09,5.30
2017,03,20,09,10,5.30
2017,03,20,09,11,5.30
2017,03,20,09,12,5.30
2017,03,20,09,13,5.30
2017,03,20,09,14,5.30
2017,03,20,09,15,5.30
2017,03,20,09,16,5.40
2017,03,20,09,17,5.40
2017,03,20,09,18,5.40
2017,03,20,09,19,5.40
2017,03,20,09,20,5.40
2017,03,20,09,21,5.40
2017,03,20,09,22,5.40
2017,03,20,09,23,5.40
2017,03,20,09,24,5.40
2017,03,20,09,25,5.50
2017,03,20,09,26,5.50
2017,03,20,09,27,5.50
2017,03,20,09,28,5.50
2017,03,20,09,29,5.50
2017,03,20,09,30,5.50
2017,03,20,09,31,5.60
2017,03,20,09,32,5.60
2017,03,20,09,33,5.60
2017,03,20,09,34,5.60
2017,03,20,09,35,5.60
2017,03,20,09,36,5.70
2017,03,20,09,37,5.70
2017,03,20,09,38,5.70
2017,03,20,09,39,5.70
2017,03,20,09,40,5.70
2017,03,20,09,41,5.70
2017,03,20,09,42,5.70
2017,03,20,09,43,5.70
2017,03,20,09,44,5.70
2017,03,20,09,45,5.80
2017,03,20,09,46,5.80
2017,03,20,09,47,5.80
2017,03,20,09,48,5.80
2017,03,20,09,49,5.80
2017,03,20,09,50,5.80
2017,03,20,09,51,5.90
2017,03,20,09,52,5.90
2017,03,20,09,53,5.90
2017,03,20,09,54,5.90
2017,03,20,09,55,6.00
2017,03,20,09,56,6.00
2017,03,20,09,57,6.00
2017,03,20,09,58,6.00
2017,03,20,09,59,6.10
2017,03,20,10,00,6.10
2017,03,20,10,01,6.20
2017,03,20,10,02,6.20
2017,03,20,10,03,6.20
2017,03,20,10,04,6.20
2017,03,20,10,05,6.30
2017,03,20,10,06,6.30
2017,03,20,10,07,6.40
2017,03,20,10,08,6.40
2017,03,20,10,09,6.40
2017,03,20,10,10,6.40
2017,03,20,10,11,6.50
2017,03,20,10,12,6.60
2017,03,20,10,13,6.60
2017,03,20,10,14,6.60
2017,03,20,10,15,6.60
2017,03,20,10,16,6.60
2017,03,20,10,17,6.60
2017,03,20,10,18,6.60
2017,03,20,10,19,6.60
2017,03,20,10,20,6.60
2017,03,20,10,21,6.60
2017,03,20,10,22,6.60
2017,03,20,10,23,6.70
2017,03,20,10,24,6.80
2017,03,20,10,25,6.80
2017,03,20,10,26,6.80
2017,03,20,10,27,6.80
2017,03,20,10,28,6.80
2017,03,20,10,29,6.80
2017,03,20,10,30,6.80
2017,03,20,10,31,6.90
2017,03,20,10,32,6.90
2017,03,20,10,33,7.00
2017,03,20,10,34,7.00
2017,03,20,10,35,7.10
2017,03,20,10,36,7.20
2017,03,20,10,37,7.20
2017,03,20,10,38,7.30
2017,03,20,10,39,7.30
2017,03,20,10,40,7.30
2017,03,20,10,41,7.40
2017,03,20,10,42,7.40
2017,03,20,10,43,7.50
2017,03,20,10,44,7.60
2017,03,20,10,45,7.60
2017,03,20,10,46,7.70
2017,03,20,10,47,7.70
2017,03,20,10,48,7.70
2017,03,20,10,49,7.80
2017,03,20,10,50,7.80
2017,03,20,10,51,7.80
2017,03,20,10,52,7.80
2017,03,20,10,53,7.80
2017,03,20,10,54,7.80
2017,03,20,10,55,7.80
2017,03,20,10,56,7.80
2017,03,20,10,57,7.80
2017,03,20,10,58,7.80
2017,03,20,10,59,7.80
2017,03,20,11,00,7.80
2017,03,20,11,01,7.80
2017,03,20,11,02,7.80
2017,03,20,11,03,7.80
2017,03,20,11,04,7.80
2017,03,20,11,05,7.80
2017,03,20,11,06,7.80
2017,03,20,11,07,7.80
2017,03,20,11,08,7.80
2017,03,20,11,09,7.80
2017,03,20,11,10,7.80
2017,03,20,11,11,7.90
2017,03,20,11,12,8.00
2017,03,20,11,13,8.00
2017,03,20,11,14,8.10
2017,03,20,11,15,8.20
2017,03,20,11,16,8.20
2017,03,20,11,17,8.20
2017,03,20,11,18,8.20
2017,03,20,11,19,8.30
2017,03,20,11,20,8.30
2017,03,20,11,21,8.40
2017,03,20,11,22,8.40
2017,03,20,11,23,8.40
2017,03,20,11,24,8.50
2017,03,20,11,25,8.50
2017,03,20,11,26,8.60
2017,03,20,11,27,8.70
2017,03,20,11,28,8.70
2017,03,20,11,29,8.70
2017,03,20,11,30,8.70
2017,03,20,11,31,8.70
2017,03,20,11,32,8.80
2017,03,20,11,33,8.80
2017,03,20,11,34,8.80
2017,03,20,11,35,8.90
2017,03,20,11,36,8.90
2017,03,20,11,37,8.90
2017,03,20,11,38,8.90
2017,03,20,11,39,8.90
2017,03,20,11,40,9.00
2017,03,20,11,41,9.00
2017,03,20,11,42,9.10
2017,03,20,11,43,9.20
2017,03,20,11,44,9.20
2017,03,20,11,45,9.20
2017,03,20,11,46,9.20
2017,03,20,11,47,9.20
2017,03,20,11,48,9.20
2017,03,20,11,49,9.20
2017,03,20,11,50,9.20
2017,03,20,11,51,9.20
2017,03,20,11,52,9.20
2017,03,20,11,53,9.30
2017,03,20,11,54,9.30
2017,03,20,11,55,9.40
2017,03,20,11,56,9.40
2017,03,20,11,57,9.50
2017,03,20,11,58,9.50
2017,03,20,11,59,9.60
2017,03,20,12,00,9.60
2017,03,20,12,01,9.60
2017,03,20,12,02,9.60
2017,03,20,12,03,9.70
2017,03,20,12,04,9.70
2017,03,20,12,05,9.70
2017,03,20,12,06,9.70
2017,03,20,12,07,9.70
2017,03,20,12,08,9.70
2017,03,20,12,09,9.70
2017,03,20,12,10,9.70
2017,03,20,12,11,9.70
2017,03,20,12,12,9.80
2017,03,20,12,13,9.80
2017,03,20,12,14,9.80
2017,03,20,12,15,9.80
2017,03,20,12,16,9.70
2017,03,20,12,17,9.70
2017,03,20,12,18,9.70
2017,03,20,12,19,9.70
2017,03,20,12,20,9.70
2017,03,20,12,21,9.60
2017,03,20,12,22,9.50
2017,03,20,12,23,9.50
2017,03,20,12,24,9.40
2017,03,20,12,25,9.40
2017,03,20,12,26,9.40
2017,03,20,12,27,9.50
2017,03,20,12,28,9.50
2017,03,20,12,29,9.60
2017,03,20,12,30,9.70
2017,03,20,12,31,9.70
2017,03,20,12,32,9.70
2017,03,20,12,33,9.70
2017,03,20,12,34,9.70
2017,03,20,12,35,9.60
2017,03,20,12,36,9.60
2017,03,20,12,37,9.60
2017,03,20,12,38,9.60
2017,03,20,12,39,9.60
2017,03,20,12,40,9.60
2017,03,20,12,41,9.60
2017,03,20,12,42,9.60
2017,03,20,12,43,9.60
2017,03,20,12,44,9.60
2017,03,20,12,45,9.60
2017,03,20,12,46,9.60
2017,03,20,12,47,9.60
2017,03,20,12,48,9.60
2017,03,20,12,49,9.60
2017,03,20,12,50,9.70
2017,03,20,12,51,9.70
2017,03,20,12,52,9.70
2017,03,20,12,53,9.70
2017,03,20,12,54,9.70
2017,03,20,12,55,9.70
2017,03,20,12,56,9.70
2017,03,20,12,57,9.70
2017,03,20,12,58,9.70
2017,03,20,12,59,9.70
2017,03,20,13,00,9.70
2017,03,20,13,01,9.70
2017,03,20,13,02,9.70
2017,03,20,13,03,9.70
2017,03,20,13,04,9.70
2017,03,20,13,05,9.70
2017,03,20,13,06,9.70
2017,03,20,13,07,9.70
2017,03,20,13,08,9.70
2017,03,20,13,09,9.70
2017,03,20,14,16,10.60
2017,03,20,14,17,10.60
2017,03,20,14,18,10.50
2017,03,20,14,19,10.40
2017,03,20,14,20,10.40
2017,03,20,14,21,10.40
2017,03,20,14,22,10.40
2017,03,20,14,23,10.40
2017,03,20,14,24,10.40
2017,03,20,14,25,10.40
2017,03,20,14,26,10.40
2017,03,20,14,27,10.40
2017,03,20,14,28,10.40
2017,03,20,14,29,10.40
2017,03,20,14,30,10.40
2017,03,20,14,31,10.30
2017,03,20,14,32,10.20
2017,03,20,14,33,10.20
2017,03,20,14,34,10.20
2017,03,20,14,35,10.20
2017,03,20,14,36,10.10
2017,03,20,14,37,10.10
2017,03,20,14,38,10.10
2017,03,20,14,39,10.10
2017,03,20,14,40,10.10
2017,03,20,14,41,10.10
2017,03,20,14,42,10.10
2017,03,20,14,43,10.00
2017,03,20,14,44,9.90
2017,03,20,14,45,9.90
2017,03,20,14,46,9.90
2017,03,20,14,47,9.90
2017,03,20,14,48,9.90
2017,03,20,14,49,9.90
2017,03,20,14,50,9.90
2017,03,20,14,51,9.90
2017,03,20,14,52,9.90
2017,03,20,14,53,9.90
2017,03,20,14,54,9.90
2017,03,20,14,55,9.90
2017,03,20,14,56,9.90
2017,03,20,14,57,9.90
2017,03,20,14,58,9.90
2017,03,20,14,59,9.90
2017,03,20,15,00,9.90
2017,03,20,15,01,9.90
2017,03,20,15,02,9.90
2017,03,20,15,03,9.90
2017,03,20,15,04,9.90
2017,03,20,15,05,9.90
2017,03,20,15,06,9.90
2017,03,20,15,07,9.90
2017,03,20,15,08,10.10
2017,03,20,15,09,10.00
2017,03,20,15,10,10.10
2017,03,20,15,11,10.10
2017,03,20,15,12,10.10
2017,03,20,15,13,10.10
2017,03,20,15,14,10.10
2017,03,20,15,15,10.10
2017,03,20,15,16,10.10
2017,03,20,15,17,10.10
2017,03,20,15,18,10.10
2017,03,20,15,19,10.10
2017,03,20,15,20,10.10
2017,03,20,15,21,10.20
2017,03,20,15,22,10.20
2017,03,20,15,23,10.20
2017,03,20,15,24,10.20
2017,03,20,15,25,10.30
2017,03,20,15,26,10.30
2017,03,20,15,27,10.30
2017,03,20,15,28,10.30
2017,03,20,15,29,10.30
2017,03,20,15,30,10.30
2017,03,20,15,31,10.30
2017,03,20,15,32,10.30
2017,03,20,15,33,10.30
2017,03,20,15,34,10.30
2017,03,20,15,35,10.30
2017,03,20,15,36,10.30
2017,03,20,15,37,10.20
2017,03,20,15,38,10.20
2017,03,20,15,39,10.20
2017,03,20,15,40,10.20
2017,03,20,15,41,10.20
2017,03,20,15,42,10.20
2017,03,20,15,43,10.10
2017,03,20,15,44,10.10
2017,03,20,15,45,10.10
2017,03,20,15,46,10.10
2017,03,20,15,47,10.10
2017,03,20,15,48,10.10
2017,03,20,15,49,10.10
2017,03,20,15,50,10.10
2017,03,20,15,51,10.10
2017,03,20,15,52,10.10
2017,03,20,15,53,10.10
2017,03,20,15,54,10.10
2017,03,20,15,55,10.10
2017,03,20,15,56,10.10
2017,03,20,15,57,10.10
2017,03,20,15,58,10.10
2017,03,20,15,59,10.10
2017,03,20,16,00,10.10
2017,03,20,16,01,10.10
2017,03,20,16,02,10.10
2017,03,20,16,03,10.10
2017,03,20,16,04,10.10
2017,03,20,16,05,10.10
2017,03,20,16,06,10.10
2017,03,20,16,07,9.90
2017,03,20,16,08,9.90
2017,03,20,16,09,9.90
2017,03,20,16,10,9.90
2017,03,20,16,11,9.90
2017,03,20,16,12,9.80
2017,03,20,16,13,9.80
2017,03,20,16,14,9.80
2017,03,20,16,15,9.70
2017,03,20,16,16,9.70
2017,03,20,16,17,9.70
2017,03,20,16,18,9.70
2017,03,20,16,19,9.70
2017,03,20,16,20,9.70
2017,03,20,16,21,9.60
2017,03,20,16,22,9.60
2017,03,20,16,23,9.60
2017,03,20,16,24,9.60
2017,03,20,16,25,9.60
2017,03,20,16,26,9.60
2017,03,20,16,27,9.70
2017,03,20,16,28,9.70
2017,03,20,16,29,9.70
2017,03,20,16,30,9.70
2017,03,20,16,31,9.70
2017,03,20,16,32,9.70
2017,03,20,16,33,9.70
2017,03,20,16,34,9.70
2017,03,20,16,35,9.70
2017,03,20,16,36,9.70
2017,03,20,16,37,9.70
2017,03,20,16,38,9.70
2017,03,20,16,39,9.80
2017,03,20,16,40,9.80
2017,03,20,16,41,9.80
2017,03,20,16,42,9.80
2017,03,20,16,43,9.80
2017,03,20,16,44,9.80
2017,03,20,16,45,9.80
2017,03,20,16,46,9.80
2017,03,20,16,47,9.80
2017,03,20,16,48,9.80
2017,03,20,16,49,9.80
2017,03,20,16,50,9.80
2017,03,20,16,51,9.80
2017,03,20,16,52,9.80
2017,03,20,16,53,9.80
2017,03,20,16,54,9.80
2017,03,20,16,55,9.80
2017,03,20,16,56,9.80
2017,03,20,16,57,9.80
2017,03,20,16,58,9.80
2017,03,20,16,59,9.80
2017,03,20,17,00,9.80
2017,03,20,17,01,9.80
2017,03,20,17,02,9.80
2017,03,20,17,03,9.80
2017,03,20,17,04,9.80
2017,03,20,17,05,9.80
2017,03,20,17,06,9.80
2017,03,20,17,07,9.80
2017,03,20,17,08,9.90
2017,03,20,17,09,9.90
2017,03,20,17,10,9.90
2017,03,20,17,11,9.90
2017,03,20,17,12,9.90
2017,03,20,17,13,9.90
2017,03,20,17,14,9.90
2017,03,20,17,15,9.90
2017,03,20,17,16,9.90
2017,03,20,17,17,9.90
2017,03,20,17,18,9.90
2017,03,20,17,19,9.90
2017,03,20,17,20,9.80
2017,03,20,17,21,9.80
2017,03,20,17,22,9.80
2017,03,20,17,23,9.80
2017,03,20,17,24,9.80
2017,03,20,17,25,9.80
2017,03,20,17,26,9.70
2017,03,20,17,27,9.70
2017,03,20,17,28,9.70
2017,03,20,17,29,9.70
2017,03,20,17,30,9.70
2017,03,20,17,31,9.70
2017,03,20,17,32,9.70
2017,03,20,17,33,9.70
2017,03,20,17,34,9.70
2017,03,20,17,35,9.70
2017,03,20,17,36,9.70
2017,03,20,17,37,9.70
2017,03,20,17,38,9.70
2017,03,20,17,39,9.70
2017,03,20,17,40,9.70
2017,03,20,17,41,9.60
2017,03,20,17,42,9.60
2017,03,20,17,43,9.60
2017,03,20,17,44,9.50
2017,03,20,17,45,9.50
2017,03,20,17,46,9.40
2017,03,20,17,47,9.40
2017,03,20,17,48,9.30
2017,03,20,17,49,9.30
2017,03,20,17,50,9.20
2017,03,20,17,51,9.20
2017,03,20,17,52,9.20
2017,03,20,17,53,9.10
2017,03,20,17,54,9.00
2017,03,20,17,55,8.90
2017,03,20,17,56,8.90
2017,03,20,17,57,8.80
2017,03,20,17,58,8.80
2017,03,20,17,59,8.80
2017,03,20,18,00,8.80
2017,03,20,18,01,8.70
2017,03,20,18,02,8.70
2017,03,20,18,03,8.70
2017,03,20,18,04,8.70
2017,03,20,18,05,8.70
2017,03,20,18,06,8.70
2017,03,20,18,07,8.70
2017,03,20,18,08,8.70
2017,03,20,18,09,8.70
2017,03,20,18,10,8.70
2017,03,20,18,11,8.70
2017,03,20,18,12,8.70
2017,03,20,18,13,8.70
2017,03,20,18,14,8.70
2017,03,20,18,15,8.70
2017,03,20,18,16,8.70
2017,03,20,18,17,8.70
2017,03,20,18,18,8.80
2017,03,20,18,19,8.80
2017,03,20,18,20,8.80
2017,03,20,18,21,8.80
2017,03,20,18,22,8.80
2017,03,20,18,23,8.80
2017,03,20,18,24,8.80
2017,03,20,18,25,8.80
2017,03,20,18,26,8.80
2017,03,20,18,27,8.90
2017,03,20,18,28,8.90
2017,03,20,18,29,8.90
2017,03,20,18,30,8.90
2017,03,20,18,31,8.90
2017,03,20,18,32,8.90
2017,03,20,18,33,8.90
2017,03,20,18,34,8.90
2017,03,20,18,35,8.80
2017,03,20,18,36,8.80
2017,03,20,18,37,8.80
2017,03,20,18,38,8.80
2017,03,20,18,39,8.70
2017,03,20,18,40,8.70
2017,03,20,18,41,8.70
2017,03,20,18,42,8.70
2017,03,20,18,43,8.70
2017,03,20,18,44,8.70
2017,03,20,18,45,8.70
2017,03,20,18,46,8.70
2017,03,20,18,47,8.70
2017,03,20,18,48,8.70
2017,03,20,18,49,8.70
2017,03,20,18,50,8.70
2017,03,20,18,51,8.70
2017,03,20,18,52,8.70
2017,03,20,18,53,8.70
2017,03,20,18,54,8.70
2017,03,20,18,55,8.70
2017,03,20,18,56,8.70
2017,03,20,18,57,8.70
2017,03,20,18,58,8.70
2017,03,20,18,59,8.70
2017,03,20,19,00,8.70
2017,03,20,19,01,8.70
2017,03,20,19,02,8.60
2017,03,20,19,03,8.60
2017,03,20,19,04,8.60
2017,03,20,19,05,8.60
2017,03,20,19,06,8.60
2017,03,20,19,07,8.60
2017,03,20,19,08,8.60
2017,03,20,19,09,8.60
2017,03,20,19,10,8.60
2017,03,20,19,11,8.60
2017,03,20,19,12,8.60
2017,03,20,19,13,8.60
2017,03,20,19,14,8.60
2017,03,20,19,15,8.60
2017,03,20,19,16,8.60
2017,03,20,19,17,8.60
2017,03,20,19,18,8.60
2017,03,20,19,19,8.60
2017,03,20,19,20,8.50
2017,03,20,19,21,8.50
2017,03,20,19,22,8.50
2017,03,20,19,23,8.50
2017,03,20,19,24,8.50
2017,03,20,19,25,8.40
2017,03,20,19,26,8.40
2017,03,20,19,27,8.40
2017,03,20,19,28,8.40
2017,03,20,19,29,8.40
2017,03,20,19,30,8.40
2017,03,20,19,31,8.40
2017,03,20,19,32,8.30
2017,03,20,19,33,8.30
2017,03,20,19,34,8.30
2017,03,20,19,35,8.30
2017,03,20,19,36,8.30
2017,03,20,19,37,8.30
2017,03,20,19,38,8.30
2017,03,20,19,39,8.30
2017,03,20,19,40,8.20
2017,03,20,19,41,8.20
2017,03,20,19,42,8.20
2017,03,20,19,43,8.20
2017,03,20,19,44,8.20
2017,03,20,19,45,8.20
2017,03,20,19,46,8.20
2017,03,20,19,47,8.20
2017,03,20,19,48,8.20
2017,03,20,19,49,8.20
2017,03,20,19,50,8.20
2017,03,20,19,51,8.20
2017,03,20,19,52,8.20
2017,03,20,19,53,8.20
2017,03,20,19,54,8.20
2017,03,20,19,55,8.20
2017,03,20,21,19,7.80
2017,03,20,21,20,7.80
2017,03,20,21,21,7.80
2017,03,20,21,22,7.80
2017,03,20,21,23,7.80
2017,03,20,21,24,7.80
2017,03,20,21,25,7.80
2017,03,20,21,26,7.80
2017,03,20,21,27,7.80
2017,03,20,21,28,7.80
2017,03,20,21,29,7.80
2017,03,20,21,30,7.80
2017,03,20,21,31,7.80
2017,03,20,21,32,7.80
2017,03,20,21,33,7.80
2017,03,20,21,34,7.80
2017,03,20,21,35,7.80
2017,03,20,21,36,7.80
2017,03,20,21,37,7.80
2017,03,20,21,38,7.80
2017,03,20,21,39,7.80
2017,03,20,21,40,7.80
2017,03,20,21,41,7.80
2017,03,20,21,42,7.80
2017,03,20,21,43,7.80
2017,03,20,21,44,7.80
2017,03,20,21,45,7.80
2017,03,20,21,46,7.80
2017,03,20,21,47,7.80
2017,03,20,21,48,7.80
2017,03,20,21,49,7.80
2017,03,20,21,50,7.80
2017,03,20,21,51,7.80
2017,03,20,21,52,7.80
2017,03,20,21,53,7.90
2017,03,20,21,54,7.90